Regional Weather Roundup
Issued by NWS

Home | Current Version | Previous Version | Graphics & Text | Print | Product List | Glossary On
Versions: 1 2 3 4 5 6 7 8 9 10 11 12 13 14 15 16 17 18 19 20 21 22 23 24 25 26 27 28 29 30 31 32 33 34 35 36 37 38 39 40 41 42 43 44 45 46 47 48 49 50
000
ASUS45 KPSR 230810
RWRAZ

ARIZONA HOURLY REGIONAL WEATHER ROUNDUP
NATIONAL WEATHER SERVICE PHOENIX AZ
100 AM MST THU MAR 23 2017

NOTE: FAIR INDICATES FEW OR NO CLOUDS BELOW 12,000 FEET WITH NO
SIGNIFICANT WEATHER AND/OR OBSTRUCTIONS TO VISIBILITY.

AZZ001>003-036-230900-
NORTHWEST ARIZONA

CITY           SKY/WX    TMP DP  RH WIND       PRES   REMARKS
BULLHEAD CITY  MOCLDY    63  32  31 SW10      29.82F
KINGMAN        MOCLDY    47  35  63 SE8       29.85F
$$

AZZ004>008-015-016-018-230900-
NORTH CENTRAL ARIZONA

CITY           SKY/WX    TMP DP  RH WIND       PRES   REMARKS
GRAND CANYON   CLOUDY    34  34 100 S3        29.90F
WILLIAMS       LGT SNOW  34  32  93 S8G17     29.89F WCI  27
PRESCOTT       LGT RAIN  38  36  92 S13       29.91F WCI  30
FLAGSTAFF      SNOW      32  31  96 W8        29.90F VSB 1/2 WCI  25
PAYSON         CLOUDY    52  43  71 S12G18    29.93F
PAGE           CLOUDY    47  32  56 N3        29.85R
$$

AZZ009>014-017-230900-
NORTHEAST ARIZONA

CITY           SKY/WX    TMP DP  RH WIND       PRES   REMARKS
WINSLOW        PTCLDY    45  38  76 N7        29.90S
SAINT JOHNS    CLEAR     54  29  38 SW14      29.89F
WINDOW ROCK    CLEAR     49  27  42 SW14      29.93F
SHOW LOW       MOCLDY    46  34  61 S13G20    29.95S
$$

AZZ023-230900-
GREATER PHOENIX AREA

CITY           SKY/WX    TMP DP  RH WIND       PRES   REMARKS
PHOENIX        CLOUDY    64  42  44 NW10      29.88R
BUCKEYE        CLOUDY    54  54 100 NW3       29.92R
LUKE AFB       HVY RAIN  59  52  77 NW9       29.90R
DEER VALLEY    CLOUDY    59  44  57 NW20G25   29.89R
SCOTTSDALE     CLOUDY    62  42  47 W7        29.90R
MESA-GATEWAY   PTCLDY    61  41  48 SE3       29.89S
$$

AZZ027-028-230900-
SOUTHWEST MARICOPA COUNTY AND PINAL COUNTY

CITY           SKY/WX    TMP DP  RH WIND       PRES   REMARKS
CASA GRANDE    NOT AVBL
GILA BEND      CLOUDY    59  44  58 W13       29.90R
$$

AZZ503-504-507>509-230900-
SOUTHEAST ARIZONA

CITY           SKY/WX    TMP DP  RH WIND       PRES   REMARKS
TUCSON         PTCLDY    64  45  49 W7        29.93S
DAVIS-MONTHAN  PTCLDY    64  46  51 W9        29.92F
NOGALES        MOCLDY    59  46  62 S8        29.97F
SIERRA VISTA   CLEAR     58  35  40 SW26G32   29.94F
DOUGLAS        CLEAR     59  30  33 SW9       29.95S
SAFFORD        CLEAR     61  35  37 NW10      29.85S
$$

AZZ020-021-025-026-031-230900-
SOUTHWEST ARIZONA

CITY           SKY/WX    TMP DP  RH WIND       PRES   REMARKS
YUMA           MOCLDY    58  42  55 W9        29.90S
$$

CAZ031-033-041-043-047-048-061-230900-
SOUTHERN CALIFORNIA

CITY           SKY/WX    TMP DP  RH WIND       PRES   REMARKS
DOWNTOWN L.A.  CLEAR     55  50  83 CALM      29.99R
L.A. AIRPORT   PTCLDY    57  49  74 W9        30.00R
SAN DIEGO      MOCLDY    59  48  67 W15G23    30.06R
BURBANK        CLEAR     54  42  64 NW3       29.99R
ONTARIO        MOCLDY    53  48  83 SW12      29.98S
RIVERSIDE      CLOUDY    53  50  89 CALM      29.99S
PALM SPRINGS   MOCLDY    63  37  38 E9        29.87F
EL CENTRO NAS  CLEAR     58  39  49 W14       29.92F
IMPERIAL       CLEAR     59  42  53 W13       29.90S
BLYTHE         MOCLDY    62  40  44 SW9       29.86R
NEEDLES        PTCLDY    62  33  33 S5        29.83S
$$

NVZ020-UTZ003-230900-
SOUTHERN NEVADA-UTAH

CITY           SKY/WX    TMP DP  RH WIND       PRES   REMARKS
LAS VEGAS      PTCLDY    55  27  34 SW17      29.77S
SALT LAKE CITY HVY RAIN  47  44  90 NW12      29.72S FOG
$$

NMZ009-TXZ055-230900-
NEW MEXICO-WEST TEXAS

CITY           SKY/WX    TMP DP  RH WIND       PRES   REMARKS
ALBUQUERQUE    PTCLDY    58  17  20 SE10      29.90F
EL PASO        PTCLDY    71  12  10 SW7       29.91F
$$


........................KEY........................
SKY/WX - SKY CONDITION/WEATHER
TMP    - TEMPERATURE IN FAHRENHEIT
DP     - DEW POINT IN FAHRENHEIT
RH     - RELATIVE HUMIDITY IN PERCENT
WIND   - DIRECTION AND SPEED IN MILES PER HOUR (MPH)
VRB    - VARIABLE WIND DIRECTION
PRES   - MEAN SEA LEVEL PRESSURE IN INCHES OF MERCURY
         F - FALLING PRESSURE   R - RISING PRESSURE
         S - STEADY PRESSURE
VSB    - VISIBILITY IN MILES
HX     - HEAT INDEX IN FAHRENHEIT
WCI    - WIND CHILL INDEX IN FAHRENHEIT
TC     - TEMPERATURE IN CELSIUS WHICH IS ALSO KNOWN AS
         TEMPERATURE IN CENTIGRADE
AFB    - AIR FORCE BASE
         LUKE AFB IS LUKE AIR FORCE BASE
         DAVIS-MONTHAN IS DAVIS-MONTHAN AIR FORCE BASE
NAS    - NAVAL AIR STATION
         EL CENTRO NAS IS EL CENTRO NAVAL AIR STATION
N/A    - NOT AVAILABLE




USA.gov is the U.S. government's official web portal to all federal, state and local government web resources and services.